EHI
2 6 12 13 11 12 17 22 25 28 29 25 17 11 9 7 4 2 1 0 0 0 0 0 0 0 0 0 0 0 0 0 0 0 0 0 0 0 0 0 0 0 0
4 7 12 13 11 12 15 20 25 28 28 24 17 12 10 8 5 2 0 0 0 0 0 0 0 0 0 0 0 0 0 0 0 0 0 0 0 0 0 0 0 0 0
7 8 12 14 13 12 14 18 23 26 25 21 16 13 11 9 6 2 0 0 0 0 0 0 0 0 0 0 0 0 0 0 0 0 0 0 0 0 0 0 0 0 0
9 9 11 16 17 15 16 18 20 21 21 20 17 15 12 10 7 4 2 1 0 0 0 0 0 0 0 0 0 0 0 0 0 0 0 0 0 0 0 0 0 0 0
9 8 11 15 18 18 19 19 19 19 20 20 18 15 13 11 9 6 4 2 1 0 0 0 0 0 0 0 0 0 0 0 0 0 0 0 0 0 0 0 0 0 0
11 10 11 14 17 19 20 18 18 19 18 17 15 13 11 9 8 6 4 3 1 0 0 0 0 0 0 0 0 0 0 0 0 0 0 0 0 0 0 0 0 0 0
15 12 13 16 17 17 17 17 17 19 18 14 13 13 11 9 7 5 3 3 2 1 0 0 1 1 1 1 0 0 0 0 0 0 0 0 0 0 0 0 0 0 0
15 12 12 16 17 15 15 15 16 18 17 15 14 13 11 10 7 5 4 4 3 2 1 1 2 2 2 2 1 0 0 0 0 0 0 0 0 0 0 0 0 0 0
12 10 10 12 13 12 12 12 13 15 16 15 14 13 11 9 7 6 5 5 4 2 2 2 2 2 2 2 1 0 0 0 0 0 0 0 0 0 0 0 0 0 0
8 9 9 9 8 8 8 9 10 12 13 12 11 9 8 6 5 4 4 4 4 2 1 1 1 1 1 1 1 0 0 0 0 0 0 0 0 0 0 0 0 0 0
5 7 8 7 5 5 5 6 6 7 8 7 6 5 5 4 3 3 3 3 3 1 0 0 0 0 0 0 0 0 0 0 0 0 0 0 0 0 0 0 0 0 0
3 4 5 5 4 3 3 3 3 3 3 3 4 3 3 3 3 3 3 2 2 1 0 0 0 0 0 0 0 0 0 0 0 0 0 0 0 0 0 0 0 0 0
3 3 4 4 3 3 2 2 2 1 0 1 2 3 3 3 3 3 3 1 1 0 0 0 0 0 0 0 0 0 0 0 0 0 0 0 0 0 0 0 0 0 0
3 3 3 2 2 1 1 2 2 1 0 0 1 3 3 3 3 3 3 2 1 0 0 0 0 0 0 0 0 0 0 0 0 0 0 0 0 0 0 0 0 0 0
2 2 1 1 0 0 0 1 1 0 0 0 1 2 3 3 3 3 3 2 1 0 0 0 0 0 0 0 0 0 0 0 0 0 0 0 0 0 0 0 0 0 0
1 1 0 0 0 0 0 0 0 0 0 0 0 1 2 3 3 3 3 2 1 0 0 0 0 0 0 0 0 0 0 0 0 0 0 0 0 0 0 0 0 0 0
1 1 1 0 0 0 0 0 0 0 0 0 0 0 1 2 3 3 3 2 1 0 0 0 0 0 0 0 0 0 0 0 0 0 0 0 0 0 0 0 0 0 0
1 1 1 0 0 0 0 0 0 0 0 0 0 0 0 1 1 2 2 1 0 0 0 0 0 0 0 0 0 0 0 0 0 0 0 0 0 0 0 0 0 0 0
0 0 0 0 0 0 0 0 0 0 0 0 0 0 0 0 0 1 1 0 0 0 0 0 0 0 0 0 0 0 0 0 0 0 0 0 0 0 0 0 0 0 0
0 0 0 0 0 0 0 0 0 0 0 0 0 0 0 0 0 0 0 0 0 0 0 0 0 0 0 0 0 0 0 0 0 0 0 0 0 0 0 0 0 0 0
0 0 0 0 0 0 0 0 0 0 0 0 0 0 0 0 0 0 0 0 0 0 0 0 0 0 0 0 0 0 0 0 0 0 0 0 0 0 0 0 0 0 0
0 0 0 0 0 0 0 0 0 0 0 0 0 0 0 0 0 0 0 0 0 0 0 0 0 0 0 0 0 0 0 0 0 0 0 0 0 0 0 0 0 0 0
0 0 0 0 0 0 0 0 0 0 0 0 0 0 0 0 0 0 0 0 0 0 0 0 0 0 0 0 0 0 0 0 0 0 0 0 0 0 0 0 0 0 0
0 0 0 0 0 0 0 0 0 0 0 0 0 0 0 0 0 0 0 0 0 0 0 0 0 0 0 0 0 0 0 0 0 0 0 0 0 0 0 0 0 0 0
0 0 0 0 0 0 0 0 0 0 0 0 0 0 0 0 0 0 0 0 0 0 0 0 0 0 0 0 0 0 0 0 0 0 0 0 0 0 0 0 0 0 0
0 0 0 0 0 0 0 0 0 0 0 0 0 0 0 0 0 0 0 0 0 0 0 0 0 0 0 0 0 0 0 0 0 0 0 0 0 0 0 0 0 0 0
Wind_Speed
4 5 11 13 13 13 13 13 13 13 13 13 13 13 13 13 13 13 12 12 12 12 12 13 14 14 15 14 14 15 15 15 15 14 14 13 14 15 15 14 12 9 15
7 7 11 13 13 13 13 12 12 12 12 13 13 13 13 13 12 12 12 12 12 12 12 13 13 14 14 14 14 14 14 14 14 14 12 10 11 14 14 13 12 9 14
8 7 10 13 13 13 13 13 12 12 12 12 12 12 12 12 12 11 11 11 12 12 12 13 13 13 13 13 13 13 14 14 13 13 11 6 8 14 14 14 13 13 13
8 7 8 12 13 13 13 13 12 12 12 11 12 12 12 12 12 12 11 11 11 11 12 12 13 12 13 13 13 13 13 13 13 12 6 5 5 12 13 13 13 14 14
7 6 8 13 12 12 13 13 12 12 12 11 11 11 11 11 11 12 12 12 11 11 12 12 12 12 12 12 12 13 13 12 12 9 6 5 5 11 13 13 13 13 14
6 5 7 12 12 12 12 12 12 12 12 11 11 11 10 11 11 12 11 11 11 11 11 11 11 12 12 12 12 12 12 12 10 6 5 5 4 10 12 12 12 13 13
6 4 6 11 11 12 12 11 11 11 11 11 11 11 10 10 11 11 11 11 11 11 11 11 11 11 11 11 12 12 12 12 7 5 5 4 5 11 12 12 12 12 12
6 4 5 10 10 10 11 11 10 11 11 11 10 10 10 11 11 11 11 11 11 11 11 11 11 11 11 11 11 12 11 10 8 6 4 4 7 10 11 11 11 11 11
5 4 3 4 6 9 10 10 9 9 10 10 10 10 9 10 10 11 10 10 10 10 10 10 10 10 11 11 11 11 11 11 6 4 4 3 7 9 10 10 10 10 10
4 4 3 4 4 4 5 8 9 8 8 9 9 9 9 9 9 10 9 9 10 10 9 9 10 10 11 11 10 11 11 8 5 4 3 4 8 9 9 10 10 10 10
3 3 3 4 4 4 4 6 6 7 7 8 7 9 8 4 5 5 7 8 9 9 9 10 10 10 10 9 10 10 8 3 4 3 2 5 8 8 9 9 10 10 10
4 3 3 3 4 4 3 4 3 3 4 4 4 5 4 4 4 5 7 8 8 8 8 9 10 10 7 4 6 7 3 4 3 2 2 6 7 7 8 9 9 9 9
5 3 3 3 4 4 3 3 2 2 3 3 4 5 4 4 3 3 3 4 4 6 4 5 6 4 4 3 3 3 4 3 2 2 2 6 6 7 7 8 8 8 9
5 4 3 3 3 4 3 3 3 3 2 3 3 4 4 3 3 3 2 3 3 2 3 3 3 4 4 4 4 4 4 3 2 2 2 6 6 6 7 7 7 8 8
5 4 4 4 4 4 4 3 3 3 3 3 3 3 4 4 3 3 2 3 3 2 3 3 3 4 4 4 4 4 4 3 3 3 2 5 6 6 5 5 6 7 7
4 4 4 4 4 4 4 3 3 3 3 3 2 3 4 4 4 4 3 3 3 3 3 3 4 4 3 3 4 3 3 3 3 3 3 4 6 6 5 5 6 6 6
4 4 4 4 4 5 4 4 3 3 3 3 2 3 3 4 4 4 3 3 3 3 4 3 4 4 3 3 3 3 3 3 3 3 3 3 3 5 6 6 6 6 6
3 3 3 3 4 4 4 3 3 3 3 2 2 2 3 3 4 4 3 3 3 3 3 4 3 3 3 3 3 2 2 2 3 3 3 3 3 3 4 6 6 6 5
3 3 3 3 4 4 4 3 3 3 3 2 2 2 2 3 4 4 3 3 4 3 3 4 3 3 3 3 3 3 2 2 2 2 3 3 3 3 3 5 6 6 5
2 3 3 3 4 4 3 3 3 2 2 2 2 2 3 3 4 3 3 3 4 4 3 4 4 3 3 3 4 3 2 2 2 2 2 2 2 3 3 3 3 3 5
3 3 3 3 3 4 3 2 2 2 1 1 1 2 3 3 4 4 3 3 4 4 4 5 4 4 3 2 3 2 2 2 2 1 1 1 2 2 3 3 2 2 2
2 2 2 2 3 3 2 2 2 2 1 1 1 2 2 3 4 4 4 3 4 4 4 4 4 3 2 2 3 3 1 1 1 1 1 1 1 1 2 2 2 2 2
1 1 1 1 2 2 3 3 3 2 2 1 1 1 2 3 3 4 4 4 4 4 4 5 5 5 4 2 1 3 3 3 1 1 0 1 1 1 1 1 1 1 1
1 1 1 1 1 2 3 3 4 3 2 2 2 1 1 2 3 4 4 4 4 3 4 5 4 3 5 4 1 1 2 3 3 1 1 0 0 0 0 0 1 0 0
2 1 1 1 1 1 2 3 3 2 2 1 1 1 1 2 2 3 4 4 4 3 4 5 4 4 4 4 3 2 2 1 2 3 2 1 1 1 1 1 1 1 0
3 3 2 2 1 1 2 2 3 3 3 3 2 2 2 2 2 3 4 4 4 4 4 4 5 5 4 4 3 3 3 3 2 2 2 2 2 1 1 1 1 1 1
Wind_Direction
174 172 163 153 148 144 139 134 128 124 122 122 122 122 121 119 116 112 109 107 104 100 98 99 96 94 92 92 91 89 87 84 81 79 77 77 79 80 79 77 74 71 78
154 163 158 153 149 145 141 135 130 126 124 123 123 123 122 121 118 115 112 110 108 103 100 100 97 95 94 93 93 91 89 86 84 80 74 73 79 82 81 79 79 80 79
142 155 155 151 149 146 142 138 134 130 127 125 124 124 124 122 121 118 115 113 109 106 102 100 97 95 95 95 95 94 91 87 83 79 73 65 78 84 82 79 78 80 80
143 149 152 149 149 147 144 141 138 136 132 128 126 126 123 120 120 118 116 114 110 107 104 101 98 97 98 96 95 95 91 87 82 76 62 55 70 84 83 81 78 78 79
139 143 153 150 148 148 144 142 141 138 135 130 126 124 124 122 121 118 116 114 111 108 105 102 100 100 100 97 96 94 92 88 80 71 59 53 60 83 83 82 81 79 77
132 137 153 151 150 148 145 143 142 140 136 133 130 127 126 125 124 120 118 114 110 107 105 102 101 102 101 100 98 95 94 89 78 66 60 55 61 83 84 84 82 80 78
131 134 150 150 151 149 147 144 142 142 140 138 134 131 129 128 126 122 119 116 113 110 106 105 103 105 103 102 99 98 96 90 80 68 61 58 71 83 84 82 81 80 77
130 129 141 147 146 147 147 143 142 141 142 140 136 133 127 123 121 121 120 119 116 113 110 106 104 104 102 100 100 99 97 91 85 75 65 64 79 83 83 83 80 80 79
114 112 112 128 137 142 144 142 140 139 138 136 132 126 120 118 118 120 120 120 118 115 112 108 107 104 101 98 99 99 96 91 83 74 71 68 82 85 84 83 83 80 79
102 103 106 106 108 119 132 136 134 132 130 129 124 117 112 111 115 114 113 117 117 115 112 109 110 106 100 98 97 96 92 85 76 71 65 80 85 88 88 86 83 79 78
112 99 103 102 101 107 116 124 124 123 123 120 117 113 106 100 105 107 109 111 112 115 113 112 112 106 97 94 95 93 86 76 77 67 65 90 94 93 92 89 85 82 80
156 137 116 115 113 110 110 108 108 105 108 110 111 111 104 99 97 99 104 106 104 104 109 111 109 102 89 81 86 85 76 77 71 62 76 95 99 97 95 92 88 86 83
164 152 142 132 123 118 112 111 104 103 104 106 113 116 110 99 93 87 90 92 91 92 89 96 91 84 85 88 84 82 81 75 66 45 72 89 94 97 97 95 93 90 86
159 167 155 136 126 122 116 116 118 118 119 123 125 128 123 115 108 107 101 98 90 92 94 91 95 94 88 86 90 89 82 76 66 49 63 80 88 94 96 99 99 96 91
168 170 163 144 141 132 124 122 119 123 128 134 133 133 134 132 133 125 119 111 105 101 107 107 106 103 97 90 86 89 83 78 71 58 42 66 79 90 95 100 102 101 97
184 179 165 154 151 137 132 129 130 130 127 125 131 139 139 139 143 139 132 125 120 117 117 118 115 112 102 98 90 86 84 77 70 63 50 47 60 73 85 102 102 100 95
184 177 167 161 145 141 135 133 134 137 131 133 136 137 141 140 143 142 140 134 132 126 120 112 103 99 97 92 87 85 82 76 76 69 60 48 42 50 68 86 92 90 87
155 163 167 154 143 142 134 132 129 134 132 135 134 134 140 140 144 141 142 142 138 131 128 125 121 109 98 92 82 69 66 73 74 74 66 58 51 40 44 71 81 78 75
152 148 149 142 145 143 130 121 115 120 127 132 131 136 145 142 146 144 145 144 139 133 132 133 123 124 121 108 92 67 54 62 63 72 69 63 61 58 44 51 59 60 59
121 124 132 130 129 129 120 106 96 94 107 121 137 148 147 147 147 143 143 145 142 136 136 135 132 116 119 120 99 71 48 39 53 66 69 63 65 65 59 51 44 41 46
72 94 120 127 133 133 131 136 133 137 137 136 152 152 155 153 150 148 147 147 150 152 153 148 136 131 121 124 101 71 37 40 55 53 61 73 67 64 68 61 54 49 28
82 89 117 137 144 152 152 146 139 132 135 145 150 145 156 162 162 161 154 157 161 154 151 156 145 140 134 149 132 123 96 9 9 38 52 84 77 64 69 64 66 59 44
50 95 138 149 145 150 141 119 100 82 72 82 129 165 174 171 170 165 165 161 166 165 168 171 165 156 156 165 146 148 153 194 242 339 37 63 88 89 69 77 82 66 51
342 16 96 127 139 142 140 151 157 163 176 191 186 185 174 175 176 174 170 166 168 170 171 178 175 168 159 167 155 112 134 149 149 175 307 328 85 138 181 158 125 122 54
10 29 58 105 116 135 150 164 168 174 176 153 142 167 185 184 184 183 176 172 175 178 178 177 174 174 170 168 165 156 123 87 121 150 204 255 286 258 219 211 196 220 222
23 30 36 59 65 120 155 171 178 178 169 163 177 188 198 192 189 196 187 185 182 178 182 185 182 181 181 171 168 165 160 161 173 157 171 216 242 268 254 238 211 219 213